#timestamp,LO_Frequency,Hit,StdDev 
1527429615.6,286047000.4,N
1527429635.5,286047000.3,N
1527429655.3,286047000.4,N
1527429675.1,286047000.5,N
1527429695.9,286046999.1,N
1527429715.7,286046998.6,N
1527429735.6,286047000.5,N
1527429755.4,286047000.9,N
1527429775.2,286046998.2,N
1527429795.1,286046998.1,N
1527429796.0,286046998.1,N
1527429815.8,286047001.2,N
1527429835.6,286047000.7,N
1527429855.5,286046999.9,N
1527429875.3,286047000.9,N
1527429895.2,286046999.7,N
1527429915.9,286047001.6,N
1527429935.7,286047001.4,N
1527429955.6,286047002.5,N
1527429975.4,286047000.4,N
1527429995.2,286047000.4,N
1527430015.1,286047000.8,N
1527430016.0,286047000.8,N
1527430035.8,286047000.0,N
1527430055.7,286047000.8,N
1527430075.5,286047000.9,N
1527430095.3,286047000.1,N
1527430115.2,286047000.1,N
1527430135.0,286047000.2,N
1527430135.9,286047000.2,N
1527430155.8,286047000.5,N
1527430175.6,286047001.1,N
1527430195.4,286047000.8,N
1527430215.3,286046998.1,N
1527430235.1,286046998.6,N
1527430255.8,286046998.6,N
1527430275.7,286046998.8,N
1527430295.5,286046998.7,N
1527430315.4,286046999.2,N
1527430335.2,286046998.6,N
1527430355.0,286047001.1,N
1527430355.9,286047001.1,N
1527430375.8,286046999.8,N
1527430395.6,286047000.9,N
1527430415.5,286047000.0,N
1527430435.3,286047002.5,N
1527430455.1,286046999.8,N
1527430475.9,286046999.8,N
1527430495.7,286046999.8,N
1527430515.5,286047000.0,N
1527430535.4,286047002.7,N
1527430555.2,286047000.3,N
1527430575.1,286047002.8,N
1527430576.0,286047002.8,N
1527430595.8,286047001.4,N
1527430615.6,286047001.9,N
1527430635.5,286047003.2,N
1527430655.3,286047001.3,N
1527430675.1,286047003.8,N
1527430695.9,286047002.2,N
1527430715.7,286047002.4,N
1527430735.6,286047001.3,N
1527430755.4,286047003.8,N
1527430775.2,286047003.2,N
1527430795.1,286047001.8,N
1527430796.0,286047001.8,N
1527430815.8,286047002.2,N
1527430835.6,286047002.8,N
1527430855.5,286047001.4,N
1527430875.3,286047003.8,N
1527430895.2,286047003.9,Y
1527430915.9,286047002.7,P
1527430935.7,286047001.4,N
1527430955.6,286047001.3,N
1527430975.4,286047003.8,Y
1527430995.3,286047001.9,P
1527431015.1,286047001.8,P
1527431016.0,286047001.8,P
1527431035.8,286047002.2,Y
1527431055.7,286047001.2,P
1527431075.5,286047000.9,N
1527431095.4,286047001.2,P
1527431115.2,286047001.2,Y
1527431135.0,286046999.1,P
1527431135.9,286046999.1,N
1527431155.8,286046999.0,N
1527431175.6,286046996.7,Y
1527431195.4,286046998.9,P
1527431215.3,286046999.0,N
1527431235.1,286046996.5,P
1527431255.9,286046998.5,N
1527431275.7,286047000.5,N
1527431295.5,286046999.9,N
1527431315.4,286047000.0,N
1527431335.2,286047002.8,N
1527431355.1,286047000.9,N
1527431356.0,286047000.9,N
1527431375.8,286047000.6,N
1527431395.6,286047000.0,N
1527431415.5,286047000.6,N
1527431435.3,286047000.2,N
1527431455.2,286046998.1,N
1527431475.9,286046998.6,N
1527431495.7,286046998.7,N
1527431515.6,286047000.6,N
1527431535.4,286047000.7,N
1527431555.2,286046998.3,N
1527431575.1,286046999.2,N
1527431576.0,286046999.2,N
1527431595.8,286046997.1,N
1527431615.7,286046997.4,N
1527431635.5,286046997.3,N
1527431655.3,286046997.2,N
1527431675.2,286046997.2,N
1527431695.0,286046999.4,N
1527431695.9,286046999.4,N
1527431715.7,286046999.0,N
1527431735.6,286046998.8,N
1527431755.4,286046999.4,N
1527431775.3,286046996.6,N
1527431795.1,286046999.5,N
1527431796.0,286046999.5,N
1527431815.8,286046997.7,N
1527431835.7,286046999.2,N
1527431855.5,286046999.6,N
1527431875.3,286046999.4,N
1527431895.2,286046999.4,N
1527431915.0,286046996.5,Y
1527431915.9,286046996.5,P
1527431935.8,286046998.2,N
1527431955.6,286046998.1,N
1527431975.4,286046998.5,N
1527431995.3,286047000.2,N
1527432015.1,286047000.3,N
1527432035.9,286047001.2,N
1527432055.7,286047001.2,N
1527432075.5,286047000.8,N
1527432095.4,286046998.1,N
1527432115.2,286047001.1,N
1527432135.0,286046998.7,N
1527432135.9,286046998.7,N
1527432155.8,286046998.5,N
1527432175.6,286047001.2,N
1527432195.5,286046998.1,N
1527432215.3,286047001.2,N
1527432235.1,286047000.3,N
1527432255.9,286047002.3,N
1527432275.7,286047002.4,N
1527432295.5,286047001.6,N
1527432315.4,286046999.7,N
1527432335.2,286046999.8,N
1527432355.1,286046999.8,N
1527432356.0,286046999.8,N
1527432375.8,286047002.6,N
1527432395.6,286047002.4,N
1527432415.5,286047001.3,N
1527432435.3,286047002.5,N
1527432455.2,286047002.3,N
1527432475.9,286047000.3,N
1527432495.7,286047000.9,N
1527432515.6,286047002.4,N
1527432535.4,286046998.2,N
1527432555.2,286046998.7,N
1527432575.1,286046996.8,N
1527432576.0,286046996.8,N
1527432595.8,286046999.6,N
1527432615.7,286047001.2,N
1527432635.5,286046998.7,N
1527432655.3,286046998.9,N
1527432675.2,286046998.2,N
1527432695.0,286047001.1,N
1527432695.9,286047001.1,N
1527432715.7,286047000.5,N
1527432735.6,286047000.3,N
1527432755.4,286047002.8,N
1527432775.3,286047002.7,N
1527432795.1,286047000.0,N
1527432796.0,286047000.0,N
1527432815.8,286047000.4,N
1527432835.7,286047000.2,N
1527432855.5,286046999.9,N
1527432875.3,286047000.8,N
1527432895.2,286047000.0,N
1527432915.0,286047002.2,N
1527432915.9,286047002.2,N
1527432935.8,286046999.8,N
1527432955.6,286047000.0,N
1527432975.4,286047000.0,N
1527433025.3,286047001.9,E
1527433065.3,286047000.0,E
1527433075.2,286047000.0,N
1527433095.0,286047000.3,P
1527433095.9,286047000.3,N
1527433115.8,286047000.6,Y
1527433135.6,286047002.7,P
1527433155.4,286047000.9,N
1527433175.3,286047000.5,N
1527433195.1,286047000.9,N
